Meteo pe oră la Chişinău

Astăzi, 30 Iulie, Vineri

Timp Temperatura Precipitaţii Vânt Presiune Umiditate
00:00 +22°C° 0 mm 3 m/s 750 mmHg 82%
01:00 +21°C° 0 mm 3 m/s 750 mmHg 83%
02:00 +21°C° 0 mm 3 m/s 750 mmHg 85%
03:00 +20°C° 0 mm 3 m/s 750 mmHg 87%
04:00 +20°C° 0 mm 2 m/s 750 mmHg 88%
05:00 +20°C° 0 mm 2 m/s 750 mmHg 90%
06:00 +21°C° 0 mm 3 m/s 750 mmHg 83%
07:00 +24°C° 0 mm 3 m/s 750 mmHg 77%
08:00 +26°C° 0 mm 4 m/s 751 mmHg 70%
09:00 +27°C° 0 mm 4 m/s 751 mmHg 63%
10:00 +29°C° 0 mm 3 m/s 751 mmHg 56%
11:00 +30°C° 0 mm 3 m/s 751 mmHg 49%
12:00 +31°C° 0 mm 3 m/s 750 mmHg 47%
13:00 +31°C° 0 mm 3 m/s 750 mmHg 44%
14:00 +33°C° 0 mm 3 m/s 750 mmHg 41%
15:00 +33°C° 0 mm 3 m/s 750 mmHg 41%
16:00 +32°C° 0 mm 2 m/s 749 mmHg 42%
17:00 +32°C° 0 mm 2 m/s 749 mmHg 42%
18:00 +30°C° 0 mm 2 m/s 749 mmHg 47%
19:00 +28°C° 0 mm 1 m/s 749 mmHg 52%
20:00 +26°C° 0 mm 1 m/s 749 mmHg 58%
21:00 +26°C° 0 mm 1 m/s 750 mmHg 59%
22:00 +25°C° 0 mm 1 m/s 750 mmHg 60%
23:00 +22°C° 0 mm 0 m/s 750 mmHg 61%

Mâine, 31 Iulie, Sâmbătă

Timp Temperatura Precipitaţii Vânt Presiune Umiditate
00:00 +22°C° 0 mm 0 m/s 750 mmHg 62%
01:00 +22°C° 0 mm 0 m/s 750 mmHg 63%
02:00 +21°C° 0 mm 0 m/s 750 mmHg 63%
03:00 +21°C° 0 mm 0 m/s 750 mmHg 64%
04:00 +21°C° 0 mm 0 m/s 750 mmHg 65%
05:00 +23°C° 0 mm 1 m/s 750 mmHg 66%
06:00 +25°C° 0 mm 1 m/s 750 mmHg 62%
07:00 +26°C° 0 mm 1 m/s 750 mmHg 57%
08:00 +28°C° 0 mm 2 m/s 750 mmHg 53%
09:00 +30°C° 0 mm 2 m/s 750 mmHg 49%
10:00 +31°C° 0 mm 2 m/s 750 mmHg 45%
11:00 +33°C° 0 mm 3 m/s 750 mmHg 41%
12:00 +34°C° 0 mm 3 m/s 750 mmHg 40%
13:00 +35°C° 0 mm 3 m/s 749 mmHg 38%
14:00 +35°C° 0 mm 2 m/s 749 mmHg 37%
15:00 +34°C° 0.1 mm 3 m/s 749 mmHg 41%
16:00 +34°C° 0.1 mm 3 m/s 749 mmHg 44%
17:00 +33°C° 0.1 mm 3 m/s 749 mmHg 48%
18:00 +30°C° 0.3 mm 3 m/s 749 mmHg 56%
19:00 +27°C° 0.3 mm 3 m/s 749 mmHg 65%
20:00 +25°C° 0.3 mm 3 m/s 749 mmHg 73%
21:00 +25°C° 0.1 mm 3 m/s 749 mmHg 73%
22:00 +25°C° 0.1 mm 3 m/s 750 mmHg 73%
23:00 +25°C° 0.1 mm 3 m/s 750 mmHg 73%

Poimâine, 1 August, Duminică

Timp Temperatura Precipitaţii Vânt Presiune Umiditate
00:00 +24°C° 0 mm 3 m/s 750 mmHg 74%
01:00 +24°C° 0 mm 3 m/s 749 mmHg 76%
02:00 +23°C° 0 mm 2 m/s 749 mmHg 77%
03:00 +23°C° 0 mm 2 m/s 749 mmHg 78%
04:00 +23°C° 0 mm 2 m/s 749 mmHg 78%
05:00 +21°C° 0 mm 2 m/s 749 mmHg 78%
06:00 +24°C° 0.1 mm 2 m/s 749 mmHg 72%
07:00 +26°C° 0.1 mm 3 m/s 750 mmHg 67%
08:00 +27°C° 0.1 mm 3 m/s 750 mmHg 62%
09:00 +29°C° 0 mm 3 m/s 750 mmHg 57%
10:00 +30°C° 0 mm 4 m/s 750 mmHg 52%
11:00 +33°C° 0 mm 4 m/s 750 mmHg 47%
12:00 +34°C° 0 mm 3 m/s 750 mmHg 45%
13:00 +35°C° 0 mm 3 m/s 750 mmHg 43%
14:00 +35°C° 0 mm 3 m/s 749 mmHg 41%
15:00 +36°C° 0 mm 2 m/s 749 mmHg 41%
16:00 +36°C° 0 mm 2 m/s 749 mmHg 40%
17:00 +36°C° 0 mm 2 m/s 749 mmHg 40%
18:00 +34°C° 0 mm 2 m/s 749 mmHg 44%
19:00 +31°C° 0 mm 2 m/s 749 mmHg 48%
20:00 +29°C° 0 mm 2 m/s 749 mmHg 52%
21:00 +28°C° 0 mm 3 m/s 749 mmHg 54%
22:00 +27°C° 0 mm 3 m/s 749 mmHg 56%
23:00 +26°C° 0 mm 3 m/s 749 mmHg 57%

2 August, Luni

Timp Temperatura Precipitaţii Vânt Presiune Umiditate
00:00 +26°C° 0 mm 3 m/s 749 mmHg 59%
01:00 +25°C° 0 mm 3 m/s 749 mmHg 62%
02:00 +24°C° 0 mm 2 m/s 749 mmHg 64%
03:00 +24°C° 0.3 mm 2 m/s 749 mmHg 67%
04:00 +23°C° 0.3 mm 2 m/s 749 mmHg 71%
05:00 +23°C° 0.3 mm 2 m/s 750 mmHg 75%
06:00 +24°C° 0.3 mm 2 m/s 749 mmHg 73%
07:00 +25°C° 0.3 mm 2 m/s 749 mmHg 70%
08:00 +26°C° 0.3 mm 3 m/s 749 mmHg 67%
09:00 +29°C° 0 mm 4 m/s 748 mmHg 58%
10:00 +32°C° 0 mm 6 m/s 748 mmHg 49%
11:00 +34°C° 0 mm 7 m/s 748 mmHg 40%
12:00 +35°C° 0 mm 7 m/s 748 mmHg 37%
13:00 +37°C° 0 mm 8 m/s 747 mmHg 34%
14:00 +39°C° 0 mm 8 m/s 747 mmHg 30%
15:00 +34°C° 1.6 mm 7 m/s 747 mmHg 45%
16:00 +29°C° 1.6 mm 7 m/s 747 mmHg 60%
17:00 +24°C° 1.6 mm 6 m/s 748 mmHg 75%
18:00 +25°C° 2 mm 4 m/s 748 mmHg 77%
19:00 +24°C° 2 mm 3 m/s 748 mmHg 78%
20:00 +23°C° 2 mm 1 m/s 748 mmHg 80%
21:00 +23°C° 0 mm 2 m/s 749 mmHg 81%
22:00 +22°C° 0 mm 3 m/s 749 mmHg 82%
23:00 +21°C° 0 mm 4 m/s 750 mmHg 82%

3 August, Marţi

Timp Temperatura Precipitaţii Vânt Presiune Umiditate
00:00 +20°C° 0 mm 5 m/s 750 mmHg 83%
01:00 +19°C° 0 mm 5 m/s 751 mmHg 83%
02:00 +17°C° 0 mm 6 m/s 751 mmHg 83%
03:00 +16°C° 0 mm 6 m/s 752 mmHg 83%
04:00 +16°C° 0 mm 5 m/s 752 mmHg 82%
05:00 +15°C° 0 mm 5 m/s 753 mmHg 82%
06:00 +17°C° 0 mm 5 m/s 753 mmHg 76%
07:00 +19°C° 0 mm 5 m/s 753 mmHg 71%
08:00 +20°C° 0 mm 5 m/s 754 mmHg 65%
09:00 +22°C° 0 mm 5 m/s 754 mmHg 59%
10:00 +23°C° 0 mm 4 m/s 754 mmHg 54%
11:00 +26°C° 0 mm 4 m/s 754 mmHg 49%
12:00 +27°C° 0 mm 4 m/s 754 mmHg 47%
13:00 +27°C° 0 mm 3 m/s 754 mmHg 44%
14:00 +28°C° 0 mm 3 m/s 753 mmHg 42%
15:00 +28°C° 0 mm 3 m/s 753 mmHg 42%
16:00 +28°C° 0 mm 2 m/s 753 mmHg 42%
17:00 +28°C° 0 mm 2 m/s 753 mmHg 42%
18:00 +26°C° 0 mm 1 m/s 753 mmHg 47%
19:00 +25°C° 0 mm 1 m/s 753 mmHg 52%
20:00 +21°C° 0 mm 0 m/s 753 mmHg 56%
21:00 +21°C° 0 mm 0 m/s 753 mmHg 58%
22:00 +20°C° 0 mm 0 m/s 753 mmHg 59%
23:00 +20°C° 0 mm 0 m/s 753 mmHg 60%

4 August, Miercuri

Timp Temperatura Precipitaţii Vânt Presiune Umiditate
00:00 +20°C° 0 mm 0 m/s 753 mmHg 62%
01:00 +19°C° 0 mm 0 m/s 753 mmHg 64%
02:00 +19°C° 0 mm 0 m/s 753 mmHg 65%
03:00 +18°C° 0 mm 0 m/s 753 mmHg 67%
04:00 +18°C° 0 mm 0 m/s 753 mmHg 69%
05:00 +18°C° 0 mm 0 m/s 753 mmHg 70%
06:00 +21°C° 0 mm 1 m/s 753 mmHg 67%
07:00 +23°C° 0 mm 1 m/s 753 mmHg 63%
08:00 +24°C° 0 mm 2 m/s 753 mmHg 59%
09:00 +25°C° 0 mm 2 m/s 753 mmHg 55%
10:00 +27°C° 0 mm 3 m/s 753 mmHg 51%
11:00 +28°C° 0 mm 3 m/s 753 mmHg 47%
12:00 +29°C° 0 mm 3 m/s 753 mmHg 45%
13:00 +29°C° 0 mm 3 m/s 753 mmHg 43%
14:00 +30°C° 0 mm 3 m/s 752 mmHg 41%
15:00 +30°C° 0 mm 3 m/s 752 mmHg 44%
16:00 +29°C° 0 mm 3 m/s 752 mmHg 46%
17:00 +29°C° 0 mm 3 m/s 751 mmHg 48%
18:00 +28°C° 0.1 mm 3 m/s 752 mmHg 53%
19:00 +26°C° 0.1 mm 3 m/s 752 mmHg 58%
20:00 +24°C° 0.1 mm 3 m/s 752 mmHg 64%
21:00 +24°C° 0.4 mm 3 m/s 752 mmHg 70%
22:00 +22°C° 0.4 mm 3 m/s 752 mmHg 76%
23:00 +21°C° 0.4 mm 2 m/s 752 mmHg 82%
Arată mai mult